Location: Chamberlain Observatory
(39.0028°N, 90.1630°W)
Time: 15:52:53
(UTC-05:00)

Daily predictions for brighter satellites

Satellite Brightness Start Highest point End
(mag) Time Altitude Azimuth Time Altitude Azimuth Time Altitude Azimuth
CENTAUR R/B 3.3 20:04:49 10° SW 20:10:44 58° NW 20:17:29 10° NNE
Cosmos 1486 Rocket 4.4 20:07:39 10° N 20:12:40 46° ENE 20:17:42 10° SE
Resurs 1-3 3.6 20:17:10 10° SSE 20:21:30 66° ENE 20:25:52 10° N
Cosmos 1869 Rocket 3.7 20:18:08 10° N 20:22:36 62° E 20:27:00 10° SSE
Cosmos 2227 4.5 20:17:15 10° NNW 20:22:53 54° ENE 20:28:27 10° SE
Cosmos 2360 4.2 20:17:59 10° SSW 20:23:41 78° ESE 20:29:26 10° NNE
Cosmos 1408 4.1 20:21:55 10° NNE 20:24:45 20° ENE 20:27:28 10° SE
Atlas Centaur 2 3.8 20:19:46 10° SSW 20:25:12 25° SSE 20:31:25 10° ESE
Molniya-1 2.1 20:28:17 10° SSW 20:29:54 79° SE 20:31:54 10° NE
Abrixas rocket 3.4 20:27:02 10° W 20:30:11 43° NNW 20:33:21 10° NE
Cosmos 2242 Rocket 4.2 20:30:53 10° SSE 20:35:01 36° E 20:39:08 10° NNE
Cosmos 1455 2.4 20:32:32 10° S 20:36:20 76° W 20:40:07 10° N
Helios 1A 3.2 20:37:00 10° SSE 20:41:07 53° ENE 20:45:15 10° N
Cosmos 2279 Rocket 4.5 20:36:54 10° SSE 20:42:37 40° E 20:48:21 10° NNE
Meteor 2-20 4.4 20:37:24 10° N 20:43:31 68° E 20:49:37 10° SSE
Cosmos 1503 Rocket 4.4 20:39:00 10° N 20:44:04 45° ENE 20:48:10 15° SE
DELTA 2 R/B (1) 4.2 20:39:46 10° W 20:45:10 48° SSW 20:49:34 15° SE
CZ-3B DEB 2.9 20:42:43 10° WNW 20:46:04 22° WSW 20:48:13 10° S
Cosmos 1354 Rocket 4.3 20:42:55 10° N 20:48:03 49° ENE 20:52:09 15° SE
Cosmos 1869 3.2 20:45:22 10° S 20:49:17 79° E 20:53:14 10° N
Spot 2 Rocket 4.1 20:45:37 10° S 20:50:38 60° WSW 20:55:41 10° NNW
Resurs 01 Rocket 2.7 20:48:22 10° S 20:52:38 46° W 20:56:57 10° NNW
OAO 3 Rocket 3.5 20:48:31 10° WSW 20:53:16 52° S 20:56:38 19° ESE
Spot 1 4.5 20:49:23 10° SSE 20:54:32 76° ENE 20:59:39 10° N
SJ-11-01 4.5 20:51:18 14° SSE 20:55:15 54° ENE 20:59:48 10° N
Cosmos 1892 4.5 20:51:56 10° NNW 20:55:22 33° W 20:58:47 10° SSW
CZ-4B DEB 2.8 20:54:22 21° SE 20:56:07 53° ENE 20:59:06 10° N
YAOGAN 6 3.7 20:56:56 22° ESE 20:58:13 27° ENE 21:01:19 10° NNE
FALCON 9 R/B 1.2 20:58:29 10° WSW 21:00:39 28° S 21:00:47 27° S
Meteor 1-29 2.8 20:58:29 10° NNE 21:01:59 73° ESE 21:05:25 10° S
Cosmos 2263 Rocket 2.8 21:00:16 10° N 21:05:29 40° ENE 21:08:25 23° ESE
SPOT 5 4.4 21:04:10 17° E 21:05:34 19° ENE 21:08:54 10° NNE
Meteor 2-10 Rocket 4.4 21:05:37 18° SE 21:09:11 36° E 21:14:25 10° NNE
Cosmos 2322 Rocket 2.1 21:03:39 10° SSW 21:09:14 83° ESE 21:14:53 10° NNE
Envisat 3.0 21:05:46 12° SSE 21:10:32 89° ENE 21:15:39 10° NNW
Cosmos 220 Rocket 4.0 21:06:04 10° NNW 21:10:33 87° ENE 21:13:27 21° SSE
Cosmos 1315 Rocket 4.2 21:08:09 10° NNW 21:11:57 39° W 21:15:42 10° SSW
Cosmos 1933 3.4 21:11:30 22° SSE 21:13:54 52° E 21:17:50 10° NNE
Cosmos 2360 Rocket 2.6 21:15:49 16° SSE 21:19:44 38° ESE 21:24:55 10° NE
Cosmos 1980 Rocket 4.3 21:15:53 10° WSW 21:20:47 29° WNW 21:25:44 10° N
Cosmos 1825 2.5 21:21:11 10° NNW 21:24:57 64° W 21:27:16 22° S
USA 234 3.2 21:22:53 26° SE 21:26:56 87° SW 21:33:31 10° NW
Cosmos 2322 4.2 21:25:27 28° SSE 21:27:36 38° ESE 21:32:49 10° NE
Cosmos 2026 Rocket 4.2 21:22:11 10° NNW 21:28:24 72° W 21:34:22 11° S
Cosmos 1908 Rocket 4.1 21:24:23 10° N 21:28:24 36° ENE 21:28:49 35° E
GENESIS II 4.3 21:24:34 10° SSW 21:28:38 81° WNW 21:32:42 10° NNE
SEDSat Delta rocket 4.3 21:24:09 10° SW 21:29:09 37° S 21:30:34 32° SE
SL-16 R/B 2.8 21:31:26 10° SW 21:37:01 59° WNW 21:42:38 10° NNE
Cosmos 1862 3.6 21:34:40 10° NNW 21:38:40 68° W 21:40:18 34° SSW
Helios 1B rocket 4.3 21:37:03 10° N 21:40:39 30° WNW 21:44:16 10° SW
SPOT 1/Viking Rocket 4.4 21:40:22 30° E 21:41:06 31° ENE 21:45:40 10° N
Lacrosse 4 Rocket 2.0 21:39:29 10° NW 21:43:43 56° WSW 21:45:08 37° S
MetOp-B 4.2 21:42:09 42° SE 21:43:45 59° ENE 21:49:01 10° N
ERS-1 Rocket 2.9 21:42:09 37° SSE 21:44:12 89° ENE 21:49:15 10° NNW
ATLAS 5 CENTAUR R/B 2.8 21:39:44 10° NNW 21:45:36 52° NE 21:47:45 37° ESE
ERBS 3.6 21:42:42 10° WNW 21:45:51 33° SW 21:46:04 32° SW
Cosmos 1939 Rocket 4.1 21:44:20 19° SSW 21:46:44 38° W 21:50:31 10° NNW
Cosmos 1733 Rocket 3.8 21:44:48 10° NNW 21:49:07 51° W 21:51:21 26° SSW
Milstar 3 3.6 21:45:37 10° WSW 21:51:55 30° SSW 21:53:10 29° S
ARGOS 3.3 21:52:59 48° ESE 21:53:59 56° ENE 21:59:13 10° N
SeaSat 1 2.6 21:57:02 51° E 21:57:41 55° ENE 22:02:30 10° NNW
Cosmos 2278 Rocket 4.4 21:57:04 10° NNE 21:58:52 11° NE 22:00:07 11° ENE
Meteor 1-26 Rocket 4.1 21:58:32 34° S 22:01:07 87° E 22:06:56 10° N
Okean 1-7 3.8 22:07:56 42° NE 22:07:56 42° NE 22:11:06 10° NNE
Cosmos 1844 Rocket 3.8 22:03:57 10° N 22:08:47 29° ENE 22:09:04 29° ENE
Terra 3.3 22:10:04 24° NE 22:10:04 24° NE 22:13:07 10° NNE
SL-08 RB Rocket 3.9 22:09:48 60° NE 22:09:48 60° NE 22:14:02 10° N
USA 229 DEB 3.5 22:03:38 10° SSW 22:10:23 72° ESE 22:17:17 10° NE
USA 229 3.5 22:03:43 10° SSW 22:10:28 71° ESE 22:17:22 10° NE
YAOGAN 11 4.2 22:13:55 69° WSW 22:14:00 69° WSW 22:18:22 10° NNW
Atlas Centaur 2 3.3 22:07:00 10° WSW 22:14:01 43° S 22:14:12 43° SSE
Cosmos 1703 Rocket 3.6 22:14:10 77° W 22:14:10 77° W 22:18:37 10° N
Cosmos 2266 Rocket 3.9 22:10:11 10° N 22:16:29 87° W 22:18:12 52° S
Cosmos 2221 Rocket 3.9 22:21:33 59° N 22:21:33 59° N 22:25:10 10° N
Nimbus 7 Rocket 4.3 22:16:45 10° NNE 22:22:42 87° ESE 22:24:01 57° S
MOS 1-B Rocket 3.8 22:22:53 63° S 22:23:57 87° WSW 22:29:40 10° NNW
Cosmos 2219 Rocket 3.9 22:28:37 19° NE 22:28:37 19° NE 22:30:29 10° NE
CZ-4C R/B 4.3 22:23:50 10° NNW 22:29:27 25° NE 22:32:09 21° ENE
H-2A R/B 2.1 22:33:27 68° NNE 22:33:27 68° NNE 22:37:51 10° N
Cosmos 1867 3.5 22:27:25 10° NNW 22:32:45 82° W 22:32:45 82° W
Cosmos 1244 Rocket 4.5 22:31:53 10° N 22:37:58 64° ENE 22:37:58 64° ENE
ASTEX 1 4.4 22:43:30 39° NNE 22:43:30 39° NNE 22:46:53 10° N
Cosmos 2237 4.3 22:42:04 67° WSW 22:42:39 74° WNW 22:48:24 10° NNE
SPOT 5 3.7 22:43:25 44° W 22:43:25 44° W 22:47:53 10° NNW
Cosmos 968 Rocket 4.3 22:42:00 10° NNW 22:46:52 44° W 22:46:52 44° W
Cosmos 2263 Rocket 3.7 22:44:37 10° NW 22:49:09 26° WSW 22:50:08 25° WSW
H-2A R/B 4.0 21:33:37 10° WSW 22:50:10 51° SSW 22:51:40 48° S
COSMOS 2428 2.9 22:52:07 69° N 22:52:07 69° N 22:57:09 10° NNE
Meteor 1-25 Rocket 4.5 22:47:45 10° NNW 22:53:06 60° W 22:53:06 60° W
H-2A R/B 3.7 23:01:06 32° NNW 23:01:06 32° NNW 23:03:27 10° NNW
Cosmos 2360 Rocket 3.9 22:58:51 10° WSW 23:03:46 30° WNW 23:08:42 10° N
Cosmos 1844 4.3 23:05:50 10° NNW 23:10:13 53° N 23:10:13 53° N
S3M 4.3 23:16:52 59° NNE 23:16:52 59° NNE 23:21:47 10° N
ATLAS 5 CENTAUR R/B 3.8 23:24:55 10° NW 23:29:19 28° W 23:29:19 28° W
Cosmos 2333 Rocket 3.4 23:34:09 38° NNE 23:34:09 38° NNE 23:37:37 10° NNE
Cosmos 2237 Rocket 3.7 23:41:32 30° NNE 23:41:32 30° NNE 23:44:20 10° NNE
Cosmos 2278 Rocket 3.3 23:38:18 10° NNW 23:41:58 41° N 23:41:58 41° N
Terra 3.9 23:48:56 22° NW 23:48:56 22° NW 23:51:06 10° NNW
Cosmos 1844 Rocket 4.3 23:47:37 10° NW 23:50:44 28° WNW 23:50:44 28° WNW
